Location: Newark
(52.3735°N, 16.9806°E)
Time: 11:36:33
(UTC+00:00)

AAUSAT CUBESAT 2 - Visible Passes

Search period start: 06 December 2021 00:00
Search period end: 16 December 2021 00:00
Orbit: 570 x 588 km, 97.5° (Epoch: 05 December)

Date Brightness Start Highest point End Pass type
(mag) Time Alt. Az. Time Alt. Az. Time Alt. Az.
06 Dec ? 04:02:10 10° NNE 04:06:15 64° ESE 04:10:20 10° S visible
06 Dec ? 05:38:23 10° NNW 05:41:11 18° WNW 05:43:59 10° WSW visible
06 Dec ? 16:34:49 10° WSW 16:36:29 12° W 16:38:09 10° WNW visible
07 Dec ? 04:06:51 10° NNE 04:10:57 72° ESE 04:15:04 10° S visible
07 Dec ? 05:43:12 10° NNW 05:45:50 17° WNW 05:48:27 10° W visible
07 Dec ? 16:40:10 10° W 16:41:15 11° W 16:42:21 10° WNW visible
08 Dec ? 02:39:12 10° ENE 02:39:38 10° E 02:40:03 10° E visible
08 Dec ? 04:11:32 10° NNE 04:15:40 80° ESE 04:19:47 10° S visible
08 Dec ? 05:48:04 10° NNW 05:50:28 15° WNW 05:52:53 10° W visible
09 Dec ? 02:43:01 10° ENE 02:44:23 11° E 02:45:45 10° ESE visible
09 Dec ? 04:16:14 10° NNE 04:20:22 88° ESE 04:24:30 10° SSW visible
09 Dec ? 05:52:56 10° NNW 05:55:07 14° WNW 05:57:17 10° W visible
09 Dec ? 15:10:36 10° S 15:14:39 70° WSW 15:18:44 10° NNW visible
10 Dec ? 02:47:18 10° ENE 02:49:09 13° E 02:51:00 10° ESE visible
10 Dec ? 04:20:56 10° NNE 04:25:04 83° WNW 04:29:11 10° SSW visible
10 Dec ? 05:57:51 10° NNW 05:59:45 13° NW 06:01:39 10° W visible
10 Dec ? 15:15:19 10° S 15:19:21 62° WSW 15:23:26 10° NNW visible
11 Dec ? 02:51:41 10° NE 02:53:54 14° E 02:56:07 10° ESE visible
11 Dec ? 04:25:38 10° N 04:29:45 75° WNW 04:33:52 10° SSW visible
11 Dec ? 06:02:49 10° NNW 06:04:22 12° NW 06:05:56 10° WNW visible
11 Dec ? 15:20:04 10° S 15:24:03 56° W 15:28:06 10° NNW visible
12 Dec ? 02:56:09 10° NE 02:58:39 16° E 03:01:10 10° SE visible
12 Dec ? 04:30:20 10° N 04:34:26 68° WNW 04:38:32 10° SSW visible
12 Dec ? 06:07:54 10° NW 06:09:00 11° NW 06:10:06 10° WNW visible
12 Dec ? 15:24:49 10° S 15:28:46 50° W 15:32:46 10° NNW visible
13 Dec ? 03:00:38 10° NE 03:03:24 17° E 03:06:09 10° SE visible
13 Dec ? 04:35:03 10° N 04:39:07 61° WNW 04:43:11 10° SSW visible
13 Dec ? 15:29:34 10° S 15:33:28 44° W 15:37:25 10° NNW visible
14 Dec ? 03:05:09 10° NE 03:08:08 19° E 03:11:07 10° SE visible
14 Dec ? 04:39:45 10° N 04:43:48 54° WNW 04:47:50 10° SSW visible
14 Dec ? 15:34:21 10° SSW 15:38:11 40° W 15:42:03 10° NNW visible
15 Dec ? 03:09:42 10° NE 03:12:52 21° E 03:16:02 10° SE visible
15 Dec ? 04:44:29 10° N 04:48:28 49° WNW 04:52:27 10° SW visible
15 Dec ? 15:39:07 10° SSW 15:42:53 36° W 15:46:42 10° NNW visible
